Вернуться в каталог

FENGYUN 1C DEB

АктивенSSO
NORAD 31186·DEBRIS·🇨🇳 China

Запущен May 10, 1999 с Taiyuan Satellite Launch Center

Loading…

Ближайшие Пролёты (ближайшие 24 часа)

TLE

СвежийSource: Space-Track

Эпоха: Sep 12, 2026, 01:01 UTC

1 31186U 99025BJQ 26255.04302351  .00000489  00000-0  28451-3 0  9996
2 31186  99.1793 182.3311 0026184  17.2078  46.2286 14.13318156999653

Отслеживайте FENGYUN 1C DEB в реальном времени с AllMySat

Download on the App Store